EW5297 Weather Reports


Display with metric or nautical units.
time (UTC)temp
F
wind
direction
speed
MPH
gust
MPH
rain 1hr
in
rain 24hr
in
rain mn
in
humidity
%
barometer
mb
20260904061812 66 139 2.0 4.0 0.00 0.00 0.00 79 1088.9
20260904060310 67 150 4.0 9.0 0.00 0.00 0.00 78 513.6
20260904054810 67 161 1.0 5.0 0.00 0.00 0.00 76 1088.3
20260904053329 67 145 4.0 8.0 0.00 0.00 0.00 77 1017.1
20260904051827 68 153 2.0 9.0 0.00 0.00 0.00 76 1017.3
20260904050328 68 156 2.0 6.0 0.00 0.00 0.00 74 811.6
20260904044826 68 159 2.0 3.0 0.00 0.00 0.00 73 1017.4
20260904043324 68 161 3.0 5.0 0.00 0.00 0.00 74 1017.5
20260904041826 69 153 3.0 7.0 0.00 0.00 0.00 72 1017.0
20260904040323 69 178 3.0 8.0 0.00 0.00 0.00 71 1017.1
20260904034847 69 169 2.0 11.0 0.00 0.00 0.00 71 1017.0
20260904033323 70 145 3.0 7.0 0.00 0.00 0.00 69 1017.1
20260904031818 71 146 5.0 10.0 0.00 0.00 0.00 70 513.4
20260904030319 70 142 2.0 9.0 0.00 0.00 0.00 68 1017.3
20260904024817 70 154 2.0 8.0 0.00 0.00 0.00 66 1017.6
20260904023313 71 152 4.0 7.0 0.00 0.00 0.00 65 1018.0
20260904021812 71 151 1.0 3.0 0.00 0.00 0.00 66 1018.1
20260904020310 70 116 2.0 8.0 0.00 0.00 0.00 66 1018.5
20260904014811 70 70 1.0 9.0 0.00 0.00 0.00 67 513.9
20260904013328 70 176 3.0 7.0 0.00 0.00 0.00 69 1018.9
20260904011826 70 156 3.0 5.0 0.00 0.00 0.00 68 919.6
20260904010347 71 159 2.0 5.0 0.00 0.00 0.00 65 967.8
20260904004825 70 151 3.0 6.0 0.00 0.00 0.00 68 515.9
20260904003321 70 152 3.0 8.0 0.00 0.00 0.00 71 655.3
20260904001822 70 142 4.0 7.0 0.00 0.00 0.00 70 586.7
20260904000320 70 173 4.0 8.0 0.00 0.00 0.00 72 901.3
20260903234821 69 166 4.0 11.0 0.00 0.00 0.00 73 8.3
20260903233318 68 154 3.0 10.0 0.00 0.00 0.00 74 396.7
20260903231814 68 131 4.0 8.0 0.00 0.00 0.00 74
20260903230314 68 146 5.0 8.0 0.00 0.00 0.00 74 288.1
20260903224812 67 161 3.0 7.0 0.00 0.00 0.00 77 1020.5
20260903223333 65 159 2.0 5.0 0.00 0.00 0.00 78 486.1
20260903221829 64 174 1.0 2.0 0.00 0.00 0.00 80 701.5
20260903220326 63 161 1.0 3.0 0.00 0.00 0.00 84
20260903214827 60 147 2.0 3.0 0.00 0.00 0.00 90 342.1
20260903213346 58 316 0.0 0.0 0.00 0.00 0.00 91 778.5
20260903211820 57 316 0.0 0.0 0.00 0.00 0.00 91 1043.1
20260903210322 56 316 0.0 0.0 0.00 0.00 0.00 91 1019.9
20260903204819 54 316 0.0 0.0 0.00 0.00 0.00 91 1019.6
20260903203320 54 316 0.0 0.0 0.00 0.00 0.00 91 973.6
20260903201817 54 316 0.0 1.0 0.00 0.00 0.00 90 459.3
20260903200314 54 316 1.0 2.0 0.00 0.00 0.00 90 1019.1
20260903194836 54 316 0.0 0.0 0.00 0.00 0.00 90 510.5
20260903193312 54 316 0.0 0.0 0.00 0.00 0.00 90 409.8
20260903191810 54 316 0.0 0.0 0.00 0.00 0.00 90 582.7
20260903190311 54 316 0.0 0.0 0.00 0.00 0.00 90 582.7
20260903184828 54 316 0.0 0.0 0.00 0.00 0.00 90 510.3
20260903183311 54 316 0.0 0.0 0.00 0.00 0.00 89 885.5
20260903181828 54 316 0.0 1.0 0.00 0.00 0.00 89 72.7
20260903180326 54 316 0.0 0.0 0.00 0.00 0.00 89 509.0
20260903174848 54 316 0.0 2.0 0.00 0.00 0.00 89 266.8
20260903173323 55 316 1.0 1.0 0.00 0.00 0.00 89
20260903171819 55 316 0.0 0.0 0.00 0.00 0.00 89 1017.5
20260903170342 55 316 1.0 2.0 0.00 0.00 0.00 88 1017.4
20260903164820 55 316 0.0 2.0 0.00 0.00 0.00 88 1089.8
20260903163342 55 316 1.0 2.0 0.00 0.00 0.00 88 712.9
20260903161819 55 316 1.0 1.0 0.00 0.00 0.00 88 842.3
20260903160317 56 316 0.0 0.0 0.00 0.00 0.00 87 608.1
20260903154819 56 316 1.0 1.0 0.00 0.00 0.00 87 489.5
20260903153321 56 316 0.0 2.0 0.00 0.00 0.00 87 505.6
20260903151825 56 316 0.0 2.0 0.00 0.00 0.00 87 233.9
20260903150327 56 316 1.0 1.0 0.00 0.00 0.00 86 317.4
20260903144827 57 316 1.0 1.0 0.00 0.00 0.00 86
20260903143311 57 316 1.0 2.0 0.00 0.00 0.00 86 694.5
20260903141829 57 316 2.0 2.0 0.00 0.00 0.00 86 763.9
20260903140310 57 316 1.0 2.0 0.00 0.00 0.00 86 953.6
20260903134810 57 316 1.0 2.0 0.00 0.00 0.00 85 88.8
20260903133326 58 316 1.0 2.0 0.00 0.00 0.00 84 355.6
20260903131828 58 316 1.0 2.0 0.00 0.00 0.00 83 713.9
20260903130324 58 316 1.0 2.0 0.00 0.00 0.00 84 715.8
20260903124822 58 316 1.0 2.0 0.00 0.00 0.00 84 852.0
20260903123324 59 316 1.0 2.0 0.00 0.00 0.00 83 714.5
20260903121821 59 316 0.0 1.0 0.00 0.00 0.00 83 719.6
20260903120343 59 316 1.0 2.0 0.00 0.00 0.00 83 850.9
20260903114840 59 316 1.0 3.0 0.00 0.00 0.00 83 815.4
20260903113316 60 316 2.0 2.0 0.00 0.00 0.00 82
20260903111816 61 316 1.0 2.0 0.00 0.00 0.00 80 950.9
20260903110335 61 316 0.0 2.0 0.00 0.00 0.00 78 658.4
20260903104811 62 316 0.0 2.0 0.00 0.00 0.00 77 929.9
20260903103312 61 316 0.0 2.0 0.00 0.00 0.00 80
20260903101829 61 319 2.0 3.0 0.00 0.00 0.00 79 715.5
20260903100331 62 325 1.0 2.0 0.00 0.00 0.00 78 771.9
20260903094826 63 315 2.0 2.0 0.00 0.00 0.00 77 418.9
20260903093325 64 315 1.0 2.0 0.00 0.00 0.00 75 659.6
20260903091825 65 331 1.0 2.0 0.00 0.00 0.00 72 1013.5
20260903090322 66 317 1.0 3.0 0.00 0.00 0.00 72 715.1